• In Belarus
  • List of Countries
  • For 7 days
  • Water Temperature
  • Weather Map
  • Weather Widgets
  • user-avatar
    Login

    Hourly Weather Malye Kuzmenki

    Today, 26 February, Wednesday

    Time Temperature Precipitation Wind Pressure Humidity
    00:00 -4°C° 0 mm 3 mps 737 mmHg 77%
    01:00 -4°C° 0 mm 3 mps 736 mmHg 79%
    02:00 -6°C° 0 mm 3 mps 736 mmHg 90%
    03:00 -5°C° 0 mm 3 mps 735 mmHg 91%
    04:00 -5°C° 0 mm 4 mps 735 mmHg 93%
    05:00 -4°C° 0 mm 4 mps 734 mmHg 94%
    06:00 -3°C° 0.2 mm 4 mps 734 mmHg 95%
    07:00 -2°C° 0.2 mm 5 mps 734 mmHg 96%
    08:00 -2°C° 0 mm 5 mps 733 mmHg 96%
    09:00 -1°C° 0.2 mm 5 mps 733 mmHg 97%
    10:00 -1°C° 0.2 mm 5 mps 732 mmHg 97%
    11:00 -2°C° 0.2 mm 6 mps 732 mmHg 98%
    12:00 -2°C° 0.7 mm 6 mps 732 mmHg 98%
    13:00 -2°C° 0.7 mm 6 mps 731 mmHg 98%
    14:00 -2°C° 0 mm 6 mps 731 mmHg 97%
    15:00 -1°C° 0.2 mm 5 mps 731 mmHg 98%
    16:00 0°C° 0.2 mm 4 mps 731 mmHg 98%
    17:00 0°C° 0.2 mm 4 mps 731 mmHg 98%
    18:00 +1°C° 0 mm 3 mps 731 mmHg 98%
    19:00 +1°C° 0 mm 3 mps 731 mmHg 98%
    20:00 +1°C° 0 mm 3 mps 732 mmHg 98%
    21:00 0°C° 0 mm 3 mps 732 mmHg 98%
    22:00 +1°C° 0 mm 2 mps 732 mmHg 98%
    23:00 +1°C° 0 mm 2 mps 732 mmHg 98%

    Tomorrow, 27 February, Thursday

    Time Temperature Precipitation Wind Pressure Humidity
    00:00 +1°C° 0 mm 2 mps 732 mmHg 98%
    01:00 +1°C° 0 mm 2 mps 732 mmHg 98%
    02:00 +2°C° 0 mm 1 mps 732 mmHg 98%
    03:00 +1°C° 0.3 mm 2 mps 731 mmHg 98%
    04:00 +1°C° 0.3 mm 2 mps 731 mmHg 98%
    05:00 0°C° 0.3 mm 3 mps 731 mmHg 99%
    06:00 0°C° 0.7 mm 4 mps 730 mmHg 98%
    07:00 0°C° 0.7 mm 4 mps 730 mmHg 98%
    08:00 0°C° 0.7 mm 5 mps 730 mmHg 98%
    09:00 0°C° 0.2 mm 5 mps 730 mmHg 98%
    10:00 0°C° 0.2 mm 5 mps 729 mmHg 98%
    11:00 0°C° 0.2 mm 5 mps 729 mmHg 98%
    12:00 +1°C° 0 mm 5 mps 729 mmHg 98%
    13:00 +1°C° 0 mm 5 mps 729 mmHg 97%
    14:00 +1°C° 0 mm 4 mps 729 mmHg 97%
    15:00 +1°C° 0.2 mm 4 mps 729 mmHg 97%
    16:00 +1°C° 0.2 mm 4 mps 729 mmHg 98%
    17:00 +2°C° 0.2 mm 3 mps 729 mmHg 98%
    18:00 +1°C° 0.1 mm 3 mps 729 mmHg 97%
    19:00 +1°C° 0.1 mm 3 mps 729 mmHg 97%
    20:00 +2°C° 0.1 mm 2 mps 729 mmHg 97%
    21:00 +2°C° 0.1 mm 2 mps 730 mmHg 96%
    22:00 +2°C° 0.1 mm 2 mps 730 mmHg 95%
    23:00 +2°C° 0.1 mm 2 mps 730 mmHg 95%

    Day after tomorrow, 28 February, Friday

    Time Temperature Precipitation Wind Pressure Humidity
    00:00 +1°C° 0 mm 2 mps 730 mmHg 94%
    01:00 +1°C° 0 mm 2 mps 730 mmHg 94%
    02:00 -1°C° 0 mm 2 mps 730 mmHg 93%
    03:00 -1°C° 0 mm 2 mps 730 mmHg 91%
    04:00 -1°C° 0 mm 2 mps 730 mmHg 90%
    05:00 -2°C° 0 mm 2 mps 730 mmHg 88%
    06:00 -1°C° 0.1 mm 2 mps 730 mmHg 87%
    07:00 -1°C° 0.1 mm 2 mps 730 mmHg 86%
    08:00 -1°C° 0.1 mm 2 mps 730 mmHg 85%
    09:00 -1°C° 0 mm 3 mps 730 mmHg 82%
    10:00 0°C° 0 mm 3 mps 730 mmHg 79%
    11:00 -1°C° 0 mm 4 mps 730 mmHg 76%
    12:00 -1°C° 0 mm 4 mps 730 mmHg 75%
    13:00 0°C° 0 mm 5 mps 731 mmHg 74%
    14:00 0°C° 0 mm 5 mps 731 mmHg 73%
    15:00 -1°C° 0 mm 5 mps 732 mmHg 74%
    16:00 -1°C° 0 mm 5 mps 733 mmHg 75%
    17:00 -2°C° 0 mm 5 mps 733 mmHg 76%
    18:00 -2°C° 0 mm 5 mps 734 mmHg 77%
    19:00 -4°C° 0 mm 5 mps 734 mmHg 79%
    20:00 -4°C° 0 mm 5 mps 735 mmHg 81%
    21:00 -4°C° 0 mm 5 mps 735 mmHg 81%
    22:00 -4°C° 0 mm 5 mps 735 mmHg 81%
    23:00 -4°C° 0 mm 5 mps 736 mmHg 81%

    29 February, Saturday

    Time Temperature Precipitation Wind Pressure Humidity
    00:00 -4°C° 0 mm 5 mps 736 mmHg 81%
    01:00 -4°C° 0 mm 5 mps 737 mmHg 81%
    02:00 -4°C° 0 mm 5 mps 737 mmHg 82%
    03:00 -4°C° 0 mm 5 mps 737 mmHg 81%
    04:00 -4°C° 0 mm 5 mps 737 mmHg 81%
    05:00 -3°C° 0 mm 4 mps 738 mmHg 81%
    06:00 -4°C° 0 mm 5 mps 738 mmHg 81%
    07:00 -4°C° 0 mm 5 mps 738 mmHg 81%
    08:00 -4°C° 0 mm 5 mps 739 mmHg 82%
    09:00 -2°C° 0 mm 5 mps 739 mmHg 78%
    10:00 -1°C° 0 mm 5 mps 739 mmHg 75%
    11:00 -1°C° 0 mm 5 mps 739 mmHg 71%
    12:00 0°C° 0 mm 5 mps 740 mmHg 70%
    13:00 0°C° 0 mm 4 mps 740 mmHg 69%
    14:00 0°C° 0 mm 4 mps 740 mmHg 67%
    15:00 +1°C° 0 mm 3 mps 741 mmHg 71%
    16:00 +1°C° 0 mm 2 mps 741 mmHg 74%
    17:00 +1°C° 0 mm 2 mps 741 mmHg 78%
    18:00 +1°C° 0 mm 1 mps 742 mmHg 79%
    19:00 +1°C° 0 mm 1 mps 743 mmHg 81%
    20:00 +1°C° 0 mm 1 mps 743 mmHg 82%
    21:00 0°C° 0 mm 0 mps 744 mmHg 83%
    22:00 -1°C° 0 mm 0 mps 744 mmHg 85%
    23:00 -1°C° 0 mm 0 mps 744 mmHg 86%

    1 March, Sunday

    Time Temperature Precipitation Wind Pressure Humidity
    00:00 -1°C° 0 mm 0 mps 745 mmHg 88%
    01:00 -1°C° 0 mm 0 mps 745 mmHg 90%
    02:00 -1°C° 0 mm 0 mps 746 mmHg 92%
    03:00 -1°C° 0 mm 0 mps 746 mmHg 92%
    04:00 0°C° 0 mm 1 mps 747 mmHg 92%
    05:00 -1°C° 0 mm 1 mps 747 mmHg 93%
    06:00 0°C° 0 mm 1 mps 747 mmHg 91%
    07:00 0°C° 0 mm 1 mps 748 mmHg 89%
    08:00 0°C° 0 mm 1 mps 748 mmHg 87%
    09:00 -1°C° 0 mm 2 mps 749 mmHg 82%
    10:00 +1°C° 0 mm 2 mps 749 mmHg 77%
    11:00 +1°C° 0 mm 3 mps 749 mmHg 72%
    12:00 +1°C° 0 mm 3 mps 749 mmHg 73%
    13:00 +1°C° 0 mm 3 mps 749 mmHg 73%
    14:00 +2°C° 0 mm 3 mps 749 mmHg 74%
    15:00 0°C° 0 mm 4 mps 749 mmHg 81%
    16:00 -1°C° 0 mm 4 mps 749 mmHg 87%
    17:00 -2°C° 0 mm 4 mps 749 mmHg 94%
    18:00 -2°C° 0 mm 4 mps 749 mmHg 93%
    19:00 -2°C° 0 mm 4 mps 749 mmHg 92%
    20:00 -3°C° 0 mm 4 mps 749 mmHg 92%
    21:00 -2°C° 0 mm 4 mps 749 mmHg 91%
    22:00 -2°C° 0 mm 4 mps 749 mmHg 91%
    23:00 -2°C° 0 mm 4 mps 749 mmHg 90%

    2 March, Monday

    Time Temperature Precipitation Wind Pressure Humidity
    00:00 -2°C° 0 mm 4 mps 749 mmHg 88%
    01:00 -2°C° 0 mm 4 mps 749 mmHg 85%
    02:00 -2°C° 0 mm 4 mps 749 mmHg 83%
    03:00 -2°C° 0 mm 5 mps 749 mmHg 83%
    04:00 -4°C° 0 mm 5 mps 749 mmHg 83%
    05:00 -4°C° 0 mm 5 mps 748 mmHg 83%
    06:00 -3°C° 0 mm 6 mps 748 mmHg 82%
    07:00 -3°C° 0 mm 6 mps 748 mmHg 81%
    08:00 -3°C° 0 mm 7 mps 748 mmHg 80%
    09:00 -2°C° 0 mm 7 mps 748 mmHg 76%
    10:00 -2°C° 0 mm 7 mps 747 mmHg 73%
    11:00 -1°C° 0 mm 8 mps 747 mmHg 70%
    12:00 -1°C° 0 mm 8 mps 747 mmHg 72%
    13:00 -1°C° 0 mm 7 mps 747 mmHg 74%
    14:00 -1°C° 0 mm 7 mps 746 mmHg 76%
    15:00 -2°C° 0 mm 7 mps 746 mmHg 78%
    16:00 -2°C° 0 mm 6 mps 746 mmHg 79%
    17:00 -3°C° 0 mm 6 mps 745 mmHg 81%
    18:00 -3°C° 0 mm 6 mps 745 mmHg 81%
    19:00 -3°C° 0 mm 6 mps 745 mmHg 82%
    20:00 -3°C° 0 mm 6 mps 745 mmHg 82%
    21:00 -3°C° 0 mm 6 mps 745 mmHg 82%
    22:00 -2°C° 0 mm 5 mps 745 mmHg 83%
    23:00 -2°C° 0 mm 5 mps 745 mmHg 83%
    Show more